Total_Precipitation_Accumulation
0.04 0.11 0.27 0.32 0.34 0.24 0.15 0.10 0.09 0.10 0.12 0.11 0.11 0.12 0.13 0.13 0.12 0.12 0.12 0.12 0.12 0.13 0.17 0.20 0.22 0.25 0.24 0.23 0.27 0.34 0.40 0.49 0.60 0.82 1.14 1.57 1.78 1.89 1.90 1.92 1.83 1.63 1.41 1.40
0.03 0.06 0.08 0.07 0.07 0.09 0.09 0.09 0.08 0.06 0.08 0.06 0.06 0.06 0.06 0.06 0.07 0.08 0.08 0.09 0.09 0.11 0.12 0.11 0.13 0.15 0.14 0.14 0.17 0.26 0.32 0.42 0.55 0.81 1.13 1.48 1.83 1.91 1.92 1.91 1.87 1.75 1.63 1.63
0.03 0.03 0.01 0.01 0.02 0.04 0.07 0.10 0.10 0.07 0.05 0.05 0.04 0.04 0.04 0.04 0.05 0.06 0.06 0.07 0.08 0.10 0.11 0.09 0.08 0.09 0.10 0.11 0.12 0.18 0.24 0.38 0.66 0.99 1.30 1.49 1.78 1.90 1.95 1.89 1.90 1.94 1.89 1.79
0.00 0.01 0.00 0.01 0.01 0.02 0.06 0.06 0.05 0.05 0.05 0.04 0.04 0.05 0.04 0.06 0.10 0.12 0.13 0.13 0.15 0.17 0.14 0.12 0.09 0.07 0.08 0.09 0.11 0.14 0.20 0.39 0.73 1.07 1.33 1.55 1.90 2.00 1.91 1.95 1.97 2.00 2.02 1.97
0.00 0.00 0.00 0.00 0.01 0.02 0.03 0.03 0.03 0.04 0.05 0.04 0.03 0.05 0.05 0.08 0.15 0.21 0.23 0.23 0.23 0.20 0.15 0.12 0.10 0.09 0.10 0.10 0.13 0.19 0.32 0.51 0.76 0.97 1.22 1.57 1.81 1.91 2.00 1.96 1.99 1.99 2.03 2.03
0.00 0.00 0.00 0.00 0.00 0.01 0.01 0.02 0.04 0.05 0.07 0.06 0.03 0.07 0.13 0.17 0.19 0.21 0.22 0.23 0.23 0.20 0.16 0.16 0.15 0.15 0.16 0.18 0.24 0.32 0.47 0.62 0.82 0.98 1.18 1.37 1.61 1.74 1.89 1.99 1.92 1.90 1.93 2.00
0.00 0.00 0.00 0.00 0.00 0.00 0.01 0.04 0.10 0.13 0.16 0.12 0.07 0.16 0.28 0.23 0.18 0.19 0.20 0.21 0.23 0.24 0.26 0.30 0.31 0.34 0.41 0.44 0.47 0.55 0.64 0.75 0.85 0.95 1.03 1.09 1.26 1.41 1.46 1.60 1.69 1.79 1.81 1.85
0.00 0.00 0.00 0.00 0.00 0.00 0.01 0.03 0.10 0.15 0.15 0.15 0.17 0.36 0.41 0.27 0.23 0.22 0.23 0.25 0.29 0.37 0.43 0.53 0.61 0.69 0.76 0.75 0.74 0.80 0.85 0.83 0.81 0.86 0.92 0.94 1.00 1.07 1.13 1.16 1.20 1.36 1.52 1.56
0.00 0.00 0.00 0.00 0.00 0.00 0.01 0.03 0.06 0.13 0.12 0.13 0.20 0.43 0.44 0.32 0.31 0.31 0.32 0.33 0.42 0.61 0.71 0.81 0.91 0.92 0.93 0.90 0.85 0.85 0.88 0.85 0.83 0.82 0.82 0.78 0.75 0.79 0.88 0.90 0.96 1.01 1.11 1.13
0.01 0.00 0.00 0.00 0.00 0.01 0.03 0.07 0.13 0.26 0.34 0.30 0.31 0.48 0.52 0.44 0.39 0.37 0.41 0.49 0.65 0.91 1.06 1.19 1.27 1.17 1.10 1.09 1.13 1.01 0.92 0.85 0.81 0.81 0.80 0.74 0.68 0.70 0.72 0.73 0.81 0.79 0.78 0.78
0.03 0.03 0.01 0.01 0.02 0.05 0.10 0.16 0.24 0.37 0.45 0.57 0.70 0.85 0.68 0.58 0.58 0.65 0.75 0.83 1.00 1.26 1.43 1.52 1.53 1.43 1.23 1.10 1.09 1.03 0.92 0.81 0.71 0.70 0.74 0.73 0.66 0.66 0.67 0.65 0.62 0.58 0.59 0.63
0.05 0.11 0.07 0.03 0.07 0.11 0.22 0.37 0.50 0.74 0.74 0.67 0.87 1.09 0.84 0.69 0.71 0.74 0.80 0.92 1.10 1.22 1.30 1.34 1.30 1.29 1.18 1.08 0.99 0.95 0.84 0.71 0.65 0.69 0.70 0.72 0.62 0.56 0.58 0.56 0.56 0.51 0.49 0.51
0.12 0.22 0.21 0.15 0.21 0.29 0.37 0.45 0.54 0.63 0.78 0.85 1.04 1.23 0.92 0.71 0.69 0.75 0.87 0.91 0.90 0.88 0.98 1.07 1.13 1.04 1.00 0.92 0.87 0.94 0.94 0.83 0.81 0.84 0.89 0.81 0.67 0.62 0.59 0.54 0.53 0.49 0.49 0.52
0.18 0.25 0.30 0.34 0.40 0.47 0.51 0.46 0.43 0.54 0.75 0.83 0.94 0.97 0.75 0.62 0.62 0.64 0.72 0.72 0.70 0.74 0.78 0.84 0.92 0.88 0.89 0.83 0.80 0.89 0.93 0.95 1.02 1.10 1.06 0.88 0.76 0.68 0.60 0.53 0.48 0.47 0.50 0.53
0.12 0.13 0.15 0.16 0.16 0.24 0.43 0.56 0.51 0.53 0.60 0.84 0.76 0.60 0.54 0.51 0.53 0.54 0.56 0.56 0.52 0.56 0.56 0.55 0.55 0.56 0.63 0.63 0.60 0.64 0.71 0.82 0.98 1.05 0.94 0.79 0.67 0.57 0.51 0.52 0.48 0.47 0.51 0.52
0.04 0.04 0.03 0.04 0.06 0.15 0.37 0.49 0.52 0.52 0.48 0.47 0.42 0.40 0.30 0.29 0.34 0.33 0.32 0.33 0.32 0.32 0.33 0.31 0.28 0.28 0.33 0.33 0.35 0.39 0.47 0.62 0.84 0.93 0.80 0.63 0.56 0.52 0.48 0.46 0.42 0.40 0.40 0.42
0.01 0.03 0.05 0.05 0.06 0.14 0.38 0.42 0.46 0.35 0.20 0.17 0.23 0.24 0.17 0.18 0.26 0.26 0.27 0.29 0.25 0.23 0.23 0.24 0.22 0.20 0.20 0.20 0.23 0.30 0.36 0.50 0.60 0.62 0.57 0.47 0.41 0.39 0.38 0.37 0.37 0.38 0.40 0.41
0.03 0.08 0.11 0.09 0.12 0.33 0.59 0.46 0.39 0.31 0.16 0.10 0.10 0.11 0.12 0.16 0.20 0.19 0.22 0.27 0.24 0.20 0.21 0.21 0.21 0.20 0.21 0.22 0.23 0.32 0.37 0.39 0.44 0.52 0.50 0.43 0.38 0.35 0.35 0.33 0.35 0.43 0.43 0.41
0.11 0.13 0.16 0.16 0.19 0.37 0.46 0.31 0.26 0.34 0.33 0.12 0.08 0.08 0.10 0.11 0.14 0.13 0.13 0.17 0.17 0.14 0.13 0.13 0.13 0.12 0.12 0.12 0.11 0.13 0.17 0.22 0.27 0.30 0.35 0.34 0.29 0.30 0.33 0.33 0.38 0.42 0.42 0.46
0.23 0.20 0.23 0.23 0.25 0.37 0.31 0.14 0.11 0.23 0.43 0.17 0.06 0.05 0.04 0.05 0.08 0.06 0.06 0.06 0.05 0.04 0.03 0.03 0.03 0.03 0.03 0.02 0.03 0.04 0.05 0.06 0.09 0.10 0.14 0.18 0.19 0.22 0.28 0.37 0.43 0.41 0.39 0.43
0.14 0.21 0.29 0.37 0.46 0.62 0.42 0.18 0.13 0.30 0.40 0.15 0.04 0.01 0.01 0.01 0.02 0.02 0.03 0.03 0.01 0.00 0.00 0.00 0.00 0.01 0.01 0.01 0.01 0.02 0.02 0.02 0.02 0.02 0.04 0.07 0.11 0.17 0.25 0.32 0.31 0.31 0.34 0.37
0.20 0.32 0.46 0.55 0.71 0.88 0.57 0.34 0.30 0.27 0.14 0.06 0.01 0.00 0.00 0.00 0.00 0.01 0.02 0.02 0.01 0.00 0.00 0.00 0.00 0.00 0.00 0.00 0.00 0.00 0.00 0.00 0.00 0.00 0.01 0.02 0.04 0.07 0.12 0.20 0.23 0.26 0.29 0.30
0.21 0.44 0.61 0.60 0.62 0.57 0.41 0.30 0.20 0.15 0.09 0.02 0.00 0.00 0.00 0.00 0.00 0.00 0.01 0.01 0.01 0.00 0.00 0.00 0.00 0.00 0.00 0.00 0.00 0.00 0.00 0.00 0.00 0.00 0.00 0.00 0.01 0.02 0.06 0.12 0.17 0.21 0.27 0.29
0.06 0.12 0.16 0.18 0.21 0.19 0.16 0.11 0.07 0.06 0.05 0.01 0.00 0.00 0.00 0.00 0.00 0.00 0.00 0.01 0.01 0.00 0.00 0.00 0.00 0.00 0.00 0.00 0.00 0.00 0.00 0.00 0.00 0.00 0.00 0.00 0.01 0.01 0.03 0.06 0.13 0.21 0.24 0.23
0.02 0.02 0.02 0.04 0.05 0.06 0.07 0.05 0.03 0.03 0.02 0.01 0.00 0.00 0.00 0.00 0.00 0.00 0.00 0.01 0.01 0.01 0.00 0.00 0.00 0.00 0.00 0.00 0.00 0.00 0.00 0.00 0.00 0.00 0.00 0.00 0.00 0.01 0.02 0.02 0.06 0.13 0.15 0.14
0.01 0.01 0.02 0.01 0.01 0.02 0.04 0.02 0.01 0.02 0.01 0.00 0.00 0.00 0.00 0.00 0.00 0.00 0.00 0.00 0.01 0.01 0.00 0.00 0.00 0.00 0.00 0.00 0.00 0.00 0.00 0.00 0.00 0.00 0.00 0.00 0.00 0.01 0.01 0.02 0.03 0.05 0.05 0.07